GFSNW_prec_pwat_198.txt.gz
Precipitable_Water
0.59 0.65 1.00 1.11 1.22 1.18 1.06 0.85 0.63 0.92 1.00 0.64 0.62 0.53 0.60 0.65 0.60 0.62 0.59 0.59 0.53 0.48 0.45 0.42 0.44 0.41 0.39 0.40 0.37 0.32 0.36 0.32 0.27 0.30 0.35 0.35 0.32 0.29 0.27 0.20 0.18 0.22 0.22 0.16
0.61 0.64 0.99 1.11 1.16 1.07 0.94 0.71 0.68 0.87 0.85 0.50 0.51 0.57 0.58 0.59 0.55 0.56 0.54 0.51 0.51 0.48 0.44 0.38 0.37 0.38 0.42 0.41 0.38 0.35 0.36 0.31 0.24 0.23 0.27 0.30 0.25 0.25 0.25 0.23 0.22 0.17 0.17 0.14
0.63 0.74 0.94 1.06 1.10 1.03 0.95 0.71 0.51 0.61 0.65 0.64 0.55 0.50 0.51 0.49 0.56 0.54 0.56 0.51 0.50 0.45 0.41 0.44 0.39 0.39 0.42 0.43 0.41 0.41 0.37 0.31 0.25 0.20 0.21 0.24 0.20 0.22 0.23 0.22 0.17 0.17 0.16 0.17
0.69 0.87 0.93 0.96 0.96 1.04 0.89 0.67 0.55 0.58 0.44 0.51 0.50 0.53 0.52 0.46 0.43 0.49 0.54 0.45 0.44 0.41 0.37 0.37 0.36 0.39 0.40 0.42 0.43 0.39 0.35 0.25 0.24 0.23 0.25 0.23 0.20 0.18 0.19 0.17 0.14 0.11 0.10 0.11
0.83 0.89 0.80 0.88 0.86 0.95 0.79 0.62 0.54 0.62 0.56 0.55 0.49 0.49 0.46 0.43 0.45 0.44 0.43 0.41 0.43 0.42 0.37 0.37 0.34 0.35 0.35 0.33 0.35 0.31 0.30 0.23 0.23 0.19 0.22 0.20 0.16 0.15 0.14 0.13 0.11 0.11 0.11 0.11
0.77 0.74 0.74 0.78 0.83 0.83 0.70 0.71 0.74 0.62 0.55 0.48 0.43 0.42 0.44 0.44 0.45 0.44 0.43 0.40 0.39 0.37 0.39 0.41 0.40 0.39 0.37 0.33 0.29 0.27 0.25 0.23 0.20 0.14 0.17 0.14 0.09 0.08 0.07 0.10 0.12 0.12 0.10 0.13
0.77 0.77 0.78 0.80 0.79 0.80 0.70 0.65 0.63 0.52 0.41 0.43 0.43 0.46 0.45 0.42 0.43 0.40 0.44 0.43 0.39 0.39 0.42 0.39 0.36 0.33 0.30 0.29 0.26 0.25 0.20 0.18 0.15 0.09 0.10 0.05 0.06 0.12 0.14 0.14 0.14 0.13 0.16 0.18
0.74 0.74 0.73 0.71 0.66 0.69 0.63 0.67 0.60 0.51 0.42 0.44 0.42 0.43 0.42 0.45 0.47 0.43 0.39 0.39 0.39 0.38 0.32 0.26 0.23 0.21 0.18 0.15 0.13 0.14 0.14 0.13 0.11 0.07 0.08 0.10 0.09 0.13 0.16 0.17 0.15 0.22 0.24 0.25
0.70 0.67 0.62 0.59 0.59 0.59 0.55 0.56 0.59 0.51 0.42 0.39 0.45 0.40 0.41 0.36 0.36 0.33 0.34 0.37 0.37 0.32 0.26 0.20 0.13 0.09 0.11 0.09 0.11 0.16 0.16 0.16 0.13 0.13 0.11 0.09 0.10 0.19 0.24 0.24 0.13 0.26 0.29 0.28
0.63 0.60 0.58 0.56 0.54 0.53 0.50 0.53 0.55 0.47 0.39 0.44 0.42 0.37 0.35 0.36 0.33 0.30 0.31 0.30 0.28 0.28 0.19 0.14 0.12 0.11 0.13 0.08 0.08 0.08 0.12 0.15 0.13 0.13 0.13 0.15 0.18 0.25 0.25 0.14 0.14 0.25 0.29 0.31
0.62 0.61 0.59 0.57 0.55 0.54 0.48 0.50 0.55 0.41 0.37 0.39 0.37 0.37 0.33 0.32 0.29 0.23 0.28 0.24 0.24 0.20 0.15 0.14 0.14 0.13 0.14 0.13 0.13 0.12 0.12 0.12 0.12 0.14 0.13 0.11 0.27 0.25 0.20 0.22 0.26 0.27 0.28 0.30
0.58 0.57 0.56 0.53 0.49 0.47 0.44 0.36 0.44 0.46 0.34 0.35 0.39 0.37 0.36 0.31 0.29 0.25 0.27 0.23 0.23 0.24 0.19 0.19 0.18 0.15 0.17 0.15 0.11 0.19 0.13 0.16 0.15 0.18 0.20 0.31 0.32 0.31 0.30 0.32 0.27 0.27 0.24 0.24
0.48 0.48 0.47 0.47 0.44 0.40 0.33 0.30 0.33 0.33 0.28 0.29 0.30 0.27 0.33 0.35 0.33 0.33 0.22 0.25 0.27 0.27 0.28 0.22 0.20 0.15 0.18 0.11 0.11 0.12 0.15 0.19 0.16 0.17 0.17 0.23 0.26 0.28 0.29 0.31 0.30 0.27 0.27 0.25
0.40 0.39 0.38 0.39 0.39 0.40 0.36 0.30 0.33 0.28 0.24 0.20 0.25 0.35 0.26 0.30 0.31 0.30 0.29 0.27 0.29 0.29 0.28 0.22 0.19 0.15 0.21 0.16 0.17 0.17 0.18 0.19 0.13 0.14 0.15 0.19 0.21 0.25 0.27 0.28 0.31 0.31 0.30 0.28
0.37 0.39 0.40 0.39 0.38 0.37 0.34 0.33 0.32 0.31 0.20 0.16 0.20 0.26 0.27 0.28 0.28 0.26 0.26 0.25 0.24 0.21 0.19 0.18 0.16 0.21 0.20 0.20 0.19 0.13 0.15 0.13 0.14 0.12 0.17 0.21 0.22 0.26 0.28 0.29 0.30 0.31 0.28 0.26
0.33 0.32 0.34 0.34 0.33 0.29 0.25 0.19 0.28 0.32 0.28 0.18 0.14 0.25 0.24 0.25 0.27 0.26 0.25 0.25 0.26 0.26 0.23 0.23 0.25 0.25 0.20 0.15 0.11 0.14 0.17 0.19 0.21 0.19 0.21 0.20 0.20 0.22 0.29 0.28 0.29 0.31 0.30 0.30
0.34 0.34 0.36 0.32 0.28 0.29 0.23 0.21 0.28 0.32 0.27 0.15 0.12 0.14 0.23 0.24 0.25 0.24 0.24 0.27 0.25 0.24 0.23 0.20 0.18 0.19 0.24 0.19 0.12 0.17 0.22 0.23 0.23 0.25 0.26 0.25 0.30 0.29 0.34 0.34 0.33 0.34 0.35 0.34
0.34 0.34 0.30 0.32 0.33 0.31 0.23 0.27 0.27 0.30 0.22 0.23 0.15 0.15 0.19 0.30 0.21 0.18 0.24 0.20 0.22 0.22 0.19 0.21 0.20 0.23 0.24 0.18 0.22 0.24 0.27 0.28 0.31 0.34 0.37 0.37 0.38 0.39 0.39 0.40 0.38 0.36 0.36 0.38
0.25 0.26 0.27 0.26 0.30 0.26 0.28 0.35 0.34 0.32 0.28 0.19 0.19 0.15 0.16 0.32 0.26 0.27 0.27 0.28 0.21 0.28 0.22 0.23 0.25 0.23 0.20 0.22 0.25 0.28 0.31 0.33 0.33 0.36 0.37 0.36 0.34 0.35 0.37 0.38 0.38 0.35 0.34 0.36
0.34 0.35 0.27 0.23 0.31 0.39 0.40 0.32 0.25 0.25 0.27 0.27 0.20 0.25 0.19 0.26 0.24 0.23 0.25 0.28 0.23 0.19 0.22 0.29 0.24 0.21 0.26 0.28 0.30 0.31 0.32 0.35 0.36 0.32 0.31 0.34 0.33 0.34 0.34 0.34 0.36 0.35 0.33 0.32
0.38 0.31 0.28 0.36 0.40 0.34 0.29 0.23 0.22 0.23 0.21 0.25 0.25 0.26 0.22 0.31 0.23 0.23 0.28 0.23 0.25 0.18 0.20 0.22 0.21 0.20 0.26 0.35 0.34 0.36 0.35 0.37 0.38 0.39 0.39 0.40 0.38 0.34 0.32 0.33 0.34 0.34 0.33 0.33
0.35 0.36 0.40 0.39 0.31 0.26 0.21 0.20 0.24 0.23 0.20 0.27 0.27 0.30 0.33 0.31 0.35 0.26 0.26 0.21 0.23 0.16 0.27 0.22 0.17 0.23 0.35 0.36 0.37 0.38 0.37 0.36 0.35 0.35 0.34 0.35 0.35 0.34 0.33 0.32 0.32 0.33 0.35 0.36
0.41 0.33 0.26 0.23 0.24 0.17 0.16 0.16 0.19 0.21 0.25 0.27 0.30 0.28 0.33 0.33 0.34 0.27 0.25 0.19 0.18 0.25 0.19 0.16 0.19 0.29 0.35 0.38 0.39 0.37 0.38 0.35 0.33 0.32 0.33 0.33 0.34 0.35 0.34 0.31 0.34 0.37 0.37 0.38
0.28 0.23 0.16 0.17 0.17 0.19 0.22 0.24 0.23 0.26 0.27 0.26 0.28 0.29 0.29 0.32 0.27 0.27 0.21 0.22 0.23 0.16 0.15 0.15 0.25 0.34 0.38 0.39 0.38 0.35 0.33 0.32 0.30 0.30 0.31 0.31 0.34 0.34 0.35 0.34 0.36 0.37 0.36 0.38
0.25 0.25 0.16 0.17 0.21 0.26 0.29 0.31 0.29 0.29 0.29 0.29 0.29 0.30 0.31 0.27 0.25 0.26 0.24 0.20 0.16 0.17 0.17 0.25 0.33 0.36 0.38 0.37 0.35 0.34 0.32 0.31 0.29 0.30 0.30 0.31 0.34 0.34 0.34 0.35 0.37 0.39 0.38 0.39
0.26 0.25 0.21 0.24 0.24 0.23 0.25 0.26 0.24 0.32 0.32 0.34 0.31 0.25 0.23 0.22 0.24 0.21 0.19 0.19 0.17 0.22 0.28 0.33 0.35 0.35 0.36 0.34 0.34 0.33 0.32 0.31 0.30 0.31 0.31 0.32 0.33 0.34 0.35 0.36 0.37 0.39 0.39 0.39
0.24 0.22 0.26 0.25 0.25 0.22 0.24 0.26 0.28 0.36 0.31 0.25 0.26 0.20 0.19 0.26 0.22 0.20 0.25 0.22 0.26 0.30 0.33 0.35 0.34 0.33 0.33 0.32 0.32 0.32 0.32 0.32 0.32 0.32 0.32 0.33 0.35 0.36 0.35 0.33 0.34 0.38 0.40 0.41

GFSNW_prec_pwat_201.txt.gz
Precipitable_Water
0.49 0.49 0.52 0.58 0.64 0.83 0.99 0.82 0.63 0.97 1.07 0.67 0.66 0.55 0.58 0.64 0.61 0.68 0.64 0.64 0.61 0.56 0.56 0.50 0.49 0.43 0.43 0.42 0.41 0.35 0.40 0.35 0.31 0.33 0.38 0.38 0.35 0.33 0.33 0.28 0.26 0.31 0.28 0.20
0.53 0.52 0.56 0.61 0.64 0.81 0.88 0.69 0.66 0.87 0.92 0.52 0.53 0.59 0.60 0.63 0.59 0.61 0.60 0.58 0.60 0.60 0.54 0.46 0.49 0.48 0.47 0.44 0.39 0.35 0.37 0.33 0.28 0.28 0.32 0.35 0.31 0.33 0.32 0.31 0.29 0.23 0.21 0.17
0.58 0.54 0.58 0.62 0.66 0.82 0.82 0.64 0.53 0.65 0.69 0.68 0.59 0.54 0.52 0.52 0.63 0.60 0.61 0.59 0.60 0.54 0.50 0.52 0.45 0.47 0.47 0.46 0.43 0.42 0.39 0.34 0.30 0.26 0.28 0.31 0.27 0.29 0.28 0.26 0.21 0.21 0.19 0.20
0.59 0.58 0.60 0.65 0.68 0.86 0.79 0.66 0.56 0.63 0.49 0.53 0.58 0.59 0.56 0.53 0.49 0.57 0.60 0.55 0.53 0.50 0.44 0.45 0.42 0.42 0.44 0.45 0.44 0.41 0.38 0.31 0.33 0.34 0.33 0.31 0.28 0.26 0.25 0.24 0.24 0.20 0.17 0.16
0.57 0.60 0.64 0.68 0.72 0.86 0.73 0.59 0.58 0.65 0.59 0.60 0.57 0.56 0.52 0.53 0.53 0.51 0.48 0.50 0.52 0.50 0.44 0.45 0.41 0.43 0.40 0.39 0.42 0.40 0.41 0.33 0.33 0.30 0.30 0.28 0.24 0.24 0.24 0.22 0.19 0.17 0.13 0.10
0.57 0.62 0.65 0.69 0.79 0.80 0.67 0.72 0.73 0.59 0.52 0.55 0.53 0.50 0.51 0.52 0.55 0.55 0.55 0.52 0.49 0.45 0.46 0.49 0.47 0.48 0.46 0.43 0.39 0.37 0.35 0.31 0.27 0.22 0.24 0.22 0.17 0.17 0.16 0.14 0.12 0.11 0.10 0.12
0.69 0.72 0.71 0.75 0.80 0.80 0.76 0.76 0.74 0.54 0.44 0.51 0.51 0.52 0.52 0.52 0.52 0.46 0.50 0.51 0.46 0.49 0.50 0.48 0.46 0.45 0.43 0.41 0.37 0.37 0.31 0.28 0.26 0.21 0.20 0.13 0.15 0.16 0.13 0.12 0.14 0.16 0.16 0.17
0.69 0.67 0.70 0.76 0.77 0.77 0.76 0.78 0.68 0.63 0.50 0.52 0.52 0.51 0.50 0.51 0.50 0.45 0.44 0.44 0.47 0.49 0.46 0.38 0.32 0.30 0.29 0.30 0.32 0.31 0.30 0.25 0.19 0.15 0.13 0.12 0.10 0.10 0.12 0.15 0.14 0.18 0.19 0.23
0.71 0.73 0.75 0.75 0.78 0.79 0.77 0.77 0.80 0.67 0.51 0.46 0.54 0.49 0.49 0.44 0.42 0.41 0.42 0.46 0.47 0.45 0.36 0.28 0.23 0.20 0.21 0.17 0.19 0.21 0.19 0.19 0.14 0.13 0.09 0.07 0.12 0.18 0.22 0.24 0.12 0.20 0.23 0.22
0.68 0.69 0.69 0.72 0.74 0.73 0.70 0.68 0.71 0.62 0.51 0.53 0.51 0.44 0.43 0.46 0.40 0.35 0.37 0.38 0.37 0.38 0.29 0.24 0.21 0.17 0.18 0.12 0.13 0.15 0.15 0.14 0.11 0.11 0.11 0.12 0.17 0.20 0.25 0.13 0.13 0.22 0.23 0.23
0.60 0.60 0.61 0.60 0.63 0.63 0.63 0.60 0.62 0.53 0.43 0.47 0.51 0.48 0.44 0.42 0.38 0.33 0.36 0.33 0.33 0.30 0.24 0.21 0.20 0.15 0.15 0.14 0.14 0.13 0.11 0.11 0.12 0.14 0.12 0.10 0.23 0.21 0.17 0.20 0.24 0.26 0.28 0.26
0.53 0.52 0.53 0.53 0.53 0.53 0.53 0.48 0.56 0.56 0.46 0.45 0.50 0.48 0.49 0.43 0.41 0.36 0.35 0.30 0.29 0.28 0.22 0.20 0.19 0.17 0.18 0.16 0.12 0.18 0.13 0.14 0.12 0.15 0.13 0.20 0.25 0.20 0.28 0.28 0.26 0.27 0.27 0.29
0.49 0.48 0.47 0.46 0.48 0.49 0.47 0.47 0.48 0.44 0.40 0.40 0.39 0.37 0.43 0.44 0.41 0.41 0.29 0.30 0.30 0.27 0.28 0.23 0.21 0.16 0.18 0.13 0.13 0.15 0.17 0.19 0.14 0.14 0.13 0.16 0.18 0.23 0.23 0.27 0.28 0.28 0.29 0.31
0.43 0.42 0.39 0.37 0.36 0.38 0.39 0.36 0.40 0.35 0.32 0.26 0.30 0.39 0.32 0.36 0.34 0.31 0.31 0.29 0.30 0.29 0.26 0.21 0.18 0.14 0.18 0.13 0.13 0.13 0.15 0.18 0.16 0.16 0.15 0.15 0.15 0.18 0.23 0.25 0.28 0.28 0.29 0.31
0.35 0.35 0.36 0.34 0.31 0.31 0.30 0.31 0.36 0.34 0.24 0.22 0.25 0.30 0.31 0.31 0.29 0.27 0.27 0.24 0.23 0.22 0.19 0.17 0.15 0.19 0.18 0.18 0.17 0.11 0.16 0.12 0.11 0.09 0.12 0.14 0.15 0.21 0.25 0.24 0.23 0.26 0.29 0.30
0.31 0.31 0.31 0.32 0.30 0.29 0.21 0.16 0.28 0.33 0.30 0.21 0.18 0.29 0.27 0.30 0.28 0.25 0.25 0.25 0.23 0.21 0.17 0.17 0.19 0.21 0.18 0.13 0.11 0.12 0.14 0.17 0.18 0.16 0.18 0.20 0.22 0.22 0.21 0.22 0.22 0.27 0.30 0.31
0.32 0.32 0.32 0.30 0.29 0.26 0.21 0.20 0.26 0.30 0.26 0.17 0.15 0.19 0.26 0.28 0.26 0.25 0.24 0.25 0.22 0.21 0.20 0.18 0.19 0.18 0.20 0.16 0.09 0.14 0.19 0.22 0.22 0.25 0.26 0.23 0.26 0.29 0.35 0.36 0.37 0.38 0.38 0.37
0.32 0.34 0.33 0.29 0.27 0.25 0.20 0.26 0.26 0.25 0.19 0.18 0.12 0.15 0.17 0.25 0.17 0.16 0.23 0.19 0.21 0.21 0.19 0.19 0.16 0.19 0.21 0.15 0.18 0.23 0.27 0.29 0.30 0.32 0.35 0.35 0.38 0.38 0.37 0.39 0.41 0.39 0.38 0.39
0.27 0.27 0.28 0.28 0.23 0.19 0.23 0.31 0.27 0.28 0.22 0.14 0.15 0.14 0.14 0.28 0.22 0.22 0.22 0.22 0.15 0.23 0.18 0.20 0.22 0.20 0.17 0.18 0.22 0.25 0.28 0.28 0.30 0.33 0.35 0.36 0.35 0.34 0.36 0.37 0.35 0.34 0.35 0.37
0.34 0.33 0.25 0.19 0.28 0.39 0.38 0.27 0.21 0.22 0.24 0.22 0.18 0.23 0.19 0.25 0.23 0.22 0.23 0.25 0.21 0.18 0.23 0.29 0.22 0.19 0.23 0.26 0.28 0.29 0.30 0.30 0.31 0.28 0.28 0.31 0.32 0.35 0.36 0.36 0.35 0.34 0.33 0.34
0.33 0.28 0.25 0.33 0.40 0.33 0.27 0.21 0.20 0.21 0.20 0.24 0.24 0.23 0.20 0.29 0.20 0.21 0.27 0.22 0.24 0.17 0.20 0.20 0.20 0.18 0.23 0.31 0.32 0.35 0.34 0.34 0.35 0.35 0.34 0.34 0.34 0.33 0.33 0.32 0.33 0.33 0.33 0.31
0.35 0.34 0.37 0.35 0.28 0.23 0.19 0.18 0.21 0.20 0.19 0.26 0.26 0.28 0.29 0.29 0.33 0.24 0.26 0.21 0.23 0.15 0.26 0.21 0.17 0.20 0.30 0.35 0.35 0.35 0.36 0.36 0.35 0.35 0.33 0.32 0.32 0.32 0.33 0.33 0.34 0.32 0.33 0.35
0.37 0.29 0.22 0.21 0.21 0.15 0.14 0.13 0.16 0.17 0.23 0.26 0.28 0.25 0.30 0.31 0.32 0.26 0.24 0.19 0.17 0.26 0.19 0.16 0.18 0.27 0.34 0.36 0.37 0.37 0.38 0.37 0.36 0.33 0.32 0.31 0.31 0.32 0.34 0.34 0.35 0.33 0.35 0.37
0.25 0.20 0.14 0.15 0.14 0.18 0.20 0.20 0.19 0.24 0.24 0.24 0.26 0.25 0.26 0.29 0.25 0.26 0.20 0.22 0.23 0.16 0.14 0.15 0.25 0.32 0.35 0.39 0.38 0.37 0.34 0.34 0.32 0.31 0.30 0.30 0.30 0.30 0.34 0.35 0.36 0.35 0.34 0.37
0.21 0.22 0.13 0.15 0.21 0.25 0.28 0.29 0.27 0.28 0.28 0.27 0.27 0.28 0.28 0.26 0.23 0.24 0.22 0.20 0.15 0.16 0.16 0.24 0.30 0.34 0.35 0.36 0.37 0.35 0.33 0.32 0.30 0.30 0.30 0.30 0.30 0.30 0.32 0.35 0.37 0.36 0.36 0.37
0.22 0.22 0.18 0.22 0.22 0.22 0.25 0.25 0.24 0.29 0.30 0.32 0.30 0.25 0.22 0.21 0.23 0.20 0.18 0.17 0.16 0.20 0.27 0.33 0.35 0.34 0.33 0.31 0.31 0.31 0.31 0.30 0.30 0.31 0.31 0.32 0.31 0.31 0.33 0.35 0.36 0.36 0.36 0.37
0.20 0.19 0.24 0.24 0.24 0.23 0.25 0.25 0.25 0.34 0.29 0.24 0.25 0.19 0.18 0.24 0.20 0.18 0.23 0.19 0.25 0.29 0.31 0.33 0.33 0.32 0.31 0.31 0.31 0.31 0.30 0.30 0.31 0.32 0.32 0.33 0.34 0.34 0.33 0.32 0.35 0.36 0.37 0.39

GFSNW_prec_pwat_207.txt.gz
Precipitable_Water
0.56 0.45 0.44 0.45 0.44 0.47 0.50 0.44 0.23 0.39 0.61 0.54 0.59 0.49 0.58 0.63 0.59 0.59 0.54 0.57 0.54 0.48 0.49 0.48 0.49 0.47 0.52 0.56 0.54 0.47 0.54 0.52 0.42 0.40 0.44 0.46 0.44 0.43 0.44 0.37 0.34 0.38 0.35 0.29
0.61 0.51 0.43 0.44 0.41 0.48 0.47 0.37 0.29 0.44 0.53 0.39 0.46 0.56 0.51 0.64 0.60 0.55 0.59 0.55 0.54 0.51 0.47 0.45 0.53 0.51 0.57 0.54 0.51 0.47 0.48 0.46 0.37 0.37 0.40 0.43 0.39 0.41 0.42 0.42 0.41 0.34 0.31 0.29
0.63 0.55 0.45 0.43 0.43 0.46 0.51 0.38 0.25 0.39 0.50 0.56 0.52 0.48 0.45 0.49 0.60 0.57 0.59 0.54 0.55 0.54 0.51 0.54 0.52 0.50 0.53 0.54 0.52 0.52 0.52 0.46 0.41 0.32 0.34 0.38 0.34 0.36 0.39 0.39 0.33 0.34 0.31 0.34
0.63 0.57 0.48 0.45 0.44 0.45 0.49 0.39 0.30 0.38 0.26 0.39 0.52 0.50 0.47 0.44 0.47 0.58 0.58 0.54 0.52 0.52 0.49 0.51 0.51 0.54 0.52 0.54 0.54 0.49 0.48 0.41 0.44 0.43 0.41 0.39 0.35 0.35 0.36 0.34 0.35 0.31 0.33 0.32
0.63 0.58 0.49 0.47 0.46 0.50 0.44 0.35 0.33 0.42 0.36 0.38 0.48 0.48 0.47 0.43 0.51 0.51 0.48 0.45 0.53 0.52 0.44 0.48 0.47 0.53 0.50 0.48 0.52 0.48 0.48 0.38 0.40 0.38 0.40 0.38 0.33 0.34 0.34 0.34 0.33 0.32 0.32 0.30
0.60 0.56 0.50 0.49 0.49 0.52 0.43 0.47 0.48 0.44 0.33 0.36 0.40 0.45 0.44 0.47 0.51 0.51 0.51 0.51 0.53 0.52 0.54 0.62 0.65 0.65 0.60 0.55 0.48 0.45 0.41 0.39 0.37 0.32 0.37 0.37 0.30 0.33 0.33 0.33 0.34 0.33 0.28 0.30
0.56 0.54 0.49 0.49 0.50 0.52 0.46 0.47 0.47 0.40 0.34 0.35 0.35 0.49 0.48 0.46 0.49 0.46 0.53 0.57 0.53 0.55 0.67 0.67 0.66 0.62 0.59 0.57 0.51 0.50 0.41 0.41 0.38 0.31 0.32 0.23 0.30 0.33 0.36 0.34 0.34 0.35 0.33 0.31
0.55 0.52 0.50 0.49 0.51 0.52 0.47 0.51 0.46 0.43 0.36 0.41 0.38 0.44 0.41 0.50 0.54 0.52 0.53 0.58 0.63 0.64 0.66 0.51 0.43 0.41 0.43 0.44 0.48 0.49 0.50 0.42 0.33 0.28 0.26 0.28 0.27 0.26 0.26 0.26 0.26 0.29 0.26 0.23
0.53 0.49 0.47 0.47 0.51 0.53 0.51 0.50 0.58 0.52 0.38 0.41 0.50 0.42 0.46 0.46 0.44 0.45 0.49 0.63 0.69 0.64 0.54 0.45 0.34 0.30 0.34 0.33 0.37 0.46 0.45 0.44 0.35 0.29 0.24 0.21 0.25 0.28 0.27 0.25 0.19 0.24 0.21 0.21
0.57 0.54 0.53 0.55 0.58 0.60 0.55 0.51 0.56 0.50 0.43 0.49 0.52 0.42 0.40 0.51 0.48 0.42 0.46 0.47 0.47 0.55 0.46 0.38 0.34 0.32 0.36 0.30 0.30 0.30 0.31 0.31 0.28 0.28 0.24 0.24 0.27 0.29 0.29 0.17 0.17 0.23 0.22 0.22
0.65 0.62 0.57 0.58 0.61 0.60 0.59 0.55 0.61 0.53 0.44 0.48 0.57 0.59 0.50 0.46 0.47 0.38 0.42 0.45 0.46 0.43 0.39 0.38 0.35 0.33 0.32 0.31 0.31 0.31 0.28 0.26 0.25 0.26 0.22 0.18 0.27 0.30 0.21 0.22 0.23 0.24 0.24 0.24
0.62 0.63 0.66 0.63 0.63 0.65 0.62 0.52 0.66 0.66 0.50 0.45 0.62 0.64 0.66 0.62 0.57 0.50 0.52 0.48 0.49 0.48 0.42 0.40 0.36 0.32 0.31 0.29 0.25 0.31 0.25 0.28 0.25 0.25 0.23 0.25 0.24 0.22 0.26 0.24 0.21 0.20 0.21 0.24
0.60 0.61 0.64 0.67 0.68 0.67 0.63 0.58 0.62 0.58 0.49 0.47 0.51 0.50 0.61 0.67 0.66 0.69 0.49 0.50 0.52 0.48 0.48 0.39 0.35 0.29 0.31 0.24 0.24 0.26 0.26 0.27 0.21 0.19 0.21 0.21 0.22 0.24 0.26 0.26 0.22 0.20 0.19 0.18
0.57 0.60 0.61 0.63 0.66 0.65 0.64 0.56 0.61 0.58 0.51 0.36 0.39 0.57 0.54 0.66 0.67 0.63 0.57 0.51 0.49 0.46 0.42 0.35 0.31 0.28 0.31 0.24 0.24 0.22 0.22 0.23 0.20 0.18 0.18 0.19 0.20 0.21 0.18 0.19 0.19 0.19 0.21 0.22
0.47 0.52 0.58 0.60 0.61 0.62 0.62 0.61 0.60 0.57 0.44 0.34 0.36 0.46 0.51 0.53 0.48 0.49 0.51 0.47 0.42 0.37 0.32 0.29 0.26 0.28 0.25 0.24 0.21 0.17 0.19 0.16 0.14 0.12 0.13 0.13 0.12 0.14 0.15 0.14 0.15 0.18 0.19 0.19
0.37 0.40 0.45 0.45 0.48 0.53 0.47 0.43 0.53 0.57 0.52 0.40 0.32 0.45 0.42 0.43 0.42 0.40 0.38 0.37 0.35 0.33 0.29 0.27 0.27 0.28 0.20 0.15 0.13 0.14 0.15 0.16 0.13 0.11 0.14 0.14 0.15 0.17 0.19 0.19 0.20 0.21 0.25 0.28
0.31 0.32 0.34 0.41 0.42 0.39 0.36 0.36 0.44 0.50 0.45 0.35 0.30 0.31 0.39 0.40 0.37 0.34 0.31 0.30 0.26 0.23 0.22 0.20 0.19 0.19 0.17 0.13 0.09 0.11 0.13 0.13 0.14 0.16 0.17 0.16 0.20 0.20 0.26 0.28 0.33 0.35 0.34 0.34
0.29 0.27 0.28 0.29 0.32 0.33 0.29 0.35 0.38 0.37 0.32 0.33 0.27 0.27 0.29 0.34 0.25 0.21 0.26 0.20 0.20 0.21 0.19 0.20 0.17 0.18 0.16 0.09 0.12 0.13 0.17 0.19 0.20 0.21 0.24 0.26 0.30 0.31 0.31 0.34 0.35 0.32 0.33 0.34
0.26 0.24 0.24 0.23 0.24 0.22 0.26 0.35 0.31 0.29 0.19 0.17 0.21 0.19 0.18 0.29 0.23 0.23 0.21 0.20 0.14 0.21 0.15 0.15 0.15 0.13 0.09 0.12 0.17 0.21 0.23 0.22 0.24 0.28 0.29 0.30 0.30 0.30 0.31 0.32 0.31 0.28 0.28 0.32
0.26 0.21 0.15 0.15 0.24 0.33 0.28 0.21 0.17 0.17 0.20 0.23 0.19 0.23 0.17 0.21 0.18 0.16 0.16 0.17 0.14 0.12 0.15 0.19 0.15 0.13 0.17 0.21 0.22 0.24 0.25 0.27 0.29 0.25 0.25 0.27 0.28 0.28 0.29 0.29 0.29 0.28 0.28 0.29
0.24 0.18 0.18 0.26 0.31 0.22 0.19 0.16 0.16 0.18 0.15 0.19 0.19 0.18 0.15 0.23 0.14 0.16 0.22 0.19 0.19 0.13 0.17 0.17 0.16 0.15 0.23 0.30 0.29 0.29 0.29 0.30 0.30 0.31 0.31 0.31 0.30 0.28 0.27 0.26 0.27 0.28 0.28 0.29
0.31 0.29 0.30 0.28 0.22 0.18 0.15 0.15 0.18 0.17 0.15 0.21 0.18 0.20 0.21 0.24 0.26 0.20 0.22 0.17 0.19 0.13 0.23 0.17 0.13 0.20 0.30 0.32 0.33 0.33 0.34 0.34 0.33 0.32 0.31 0.31 0.30 0.29 0.27 0.27 0.27 0.28 0.29 0.32
0.31 0.23 0.20 0.18 0.18 0.13 0.12 0.11 0.14 0.15 0.21 0.22 0.22 0.19 0.23 0.25 0.24 0.21 0.20 0.15 0.15 0.23 0.16 0.14 0.17 0.26 0.31 0.33 0.35 0.34 0.34 0.34 0.32 0.31 0.32 0.31 0.28 0.28 0.27 0.27 0.29 0.30 0.30 0.32
0.20 0.17 0.12 0.14 0.14 0.16 0.17 0.17 0.18 0.24 0.25 0.25 0.25 0.23 0.23 0.25 0.22 0.21 0.16 0.19 0.20 0.14 0.12 0.12 0.19 0.26 0.30 0.33 0.34 0.34 0.33 0.33 0.33 0.32 0.30 0.28 0.26 0.26 0.28 0.29 0.30 0.30 0.30 0.32
0.18 0.18 0.12 0.15 0.21 0.23 0.23 0.24 0.23 0.26 0.28 0.26 0.25 0.24 0.23 0.21 0.19 0.20 0.18 0.15 0.13 0.14 0.12 0.17 0.24 0.29 0.31 0.32 0.33 0.33 0.31 0.29 0.28 0.29 0.28 0.27 0.27 0.27 0.28 0.29 0.31 0.31 0.32 0.32
0.19 0.18 0.16 0.22 0.21 0.21 0.22 0.23 0.22 0.27 0.27 0.27 0.24 0.19 0.17 0.17 0.18 0.15 0.14 0.13 0.12 0.15 0.19 0.25 0.30 0.31 0.31 0.31 0.30 0.29 0.28 0.28 0.27 0.28 0.28 0.28 0.28 0.28 0.28 0.30 0.29 0.30 0.32 0.32
0.15 0.15 0.22 0.23 0.23 0.22 0.23 0.25 0.25 0.31 0.25 0.19 0.19 0.15 0.14 0.21 0.16 0.15 0.18 0.15 0.17 0.22 0.26 0.30 0.31 0.30 0.30 0.32 0.31 0.30 0.29 0.27 0.27 0.28 0.28 0.28 0.30 0.30 0.29 0.27 0.29 0.30 0.32 0.34

GFSNW_prec_pwat_210.txt.gz
Precipitable_Water
0.66 0.70 0.67 0.64 0.53 0.45 0.49 0.34 0.24 0.41 0.53 0.31 0.32 0.42 0.54 0.60 0.56 0.61 0.60 0.59 0.55 0.51 0.52 0.53 0.54 0.53 0.55 0.62 0.65 0.58 0.61 0.55 0.44 0.42 0.46 0.51 0.53 0.50 0.51 0.40 0.37 0.41 0.39 0.37
0.66 0.69 0.69 0.66 0.57 0.48 0.42 0.29 0.28 0.46 0.49 0.23 0.26 0.38 0.52 0.59 0.52 0.55 0.53 0.50 0.52 0.55 0.50 0.47 0.53 0.57 0.60 0.54 0.57 0.57 0.58 0.51 0.41 0.42 0.45 0.46 0.42 0.46 0.52 0.52 0.49 0.38 0.34 0.36
0.71 0.66 0.71 0.67 0.59 0.48 0.42 0.32 0.21 0.33 0.42 0.34 0.29 0.28 0.44 0.49 0.58 0.52 0.52 0.45 0.52 0.51 0.46 0.49 0.47 0.53 0.56 0.56 0.56 0.58 0.59 0.51 0.43 0.35 0.38 0.41 0.37 0.40 0.44 0.47 0.39 0.37 0.35 0.41
0.70 0.66 0.70 0.66 0.59 0.49 0.45 0.32 0.23 0.26 0.25 0.31 0.30 0.36 0.39 0.46 0.49 0.55 0.54 0.48 0.50 0.47 0.41 0.46 0.47 0.52 0.51 0.57 0.59 0.59 0.55 0.44 0.47 0.47 0.43 0.40 0.38 0.38 0.39 0.38 0.40 0.35 0.36 0.37
0.70 0.70 0.69 0.64 0.57 0.52 0.44 0.30 0.26 0.30 0.27 0.29 0.31 0.30 0.31 0.44 0.52 0.52 0.47 0.45 0.45 0.46 0.41 0.42 0.45 0.48 0.48 0.50 0.57 0.52 0.56 0.44 0.47 0.42 0.45 0.41 0.37 0.38 0.37 0.37 0.38 0.37 0.38 0.37
0.71 0.68 0.65 0.61 0.55 0.53 0.40 0.41 0.35 0.40 0.27 0.26 0.29 0.26 0.37 0.42 0.57 0.55 0.53 0.44 0.45 0.47 0.51 0.59 0.63 0.61 0.62 0.60 0.53 0.50 0.51 0.47 0.41 0.36 0.45 0.41 0.34 0.36 0.36 0.37 0.38 0.37 0.31 0.37
0.66 0.65 0.62 0.57 0.50 0.49 0.43 0.39 0.36 0.30 0.21 0.30 0.29 0.34 0.40 0.41 0.53 0.49 0.54 0.57 0.51 0.55 0.67 0.66 0.65 0.65 0.62 0.59 0.59 0.60 0.50 0.47 0.44 0.35 0.37 0.26 0.34 0.38 0.40 0.37 0.38 0.39 0.38 0.38
0.62 0.62 0.57 0.50 0.45 0.45 0.42 0.45 0.35 0.33 0.29 0.33 0.34 0.39 0.36 0.47 0.55 0.55 0.54 0.58 0.62 0.61 0.59 0.51 0.45 0.45 0.46 0.48 0.51 0.53 0.56 0.48 0.38 0.32 0.31 0.34 0.32 0.31 0.35 0.34 0.33 0.38 0.37 0.39
0.55 0.54 0.52 0.48 0.46 0.46 0.43 0.47 0.49 0.41 0.31 0.31 0.41 0.37 0.44 0.43 0.42 0.46 0.53 0.64 0.66 0.62 0.53 0.46 0.36 0.31 0.35 0.36 0.37 0.50 0.52 0.50 0.40 0.35 0.29 0.24 0.31 0.32 0.35 0.35 0.25 0.31 0.36 0.34
0.53 0.49 0.48 0.46 0.47 0.50 0.48 0.46 0.54 0.44 0.33 0.36 0.46 0.36 0.38 0.55 0.49 0.42 0.48 0.51 0.52 0.57 0.45 0.40 0.36 0.32 0.41 0.30 0.29 0.35 0.38 0.39 0.34 0.33 0.30 0.32 0.34 0.33 0.31 0.23 0.26 0.30 0.28 0.26
0.59 0.51 0.47 0.48 0.51 0.55 0.53 0.46 0.54 0.47 0.40 0.43 0.46 0.56 0.45 0.50 0.53 0.43 0.48 0.47 0.48 0.47 0.41 0.39 0.36 0.33 0.37 0.32 0.37 0.38 0.37 0.34 0.32 0.33 0.29 0.26 0.37 0.32 0.27 0.30 0.32 0.29 0.26 0.27
0.61 0.59 0.55 0.52 0.53 0.55 0.59 0.47 0.58 0.59 0.44 0.42 0.53 0.58 0.66 0.56 0.60 0.54 0.52 0.48 0.44 0.48 0.42 0.40 0.38 0.34 0.33 0.32 0.28 0.40 0.33 0.38 0.34 0.35 0.33 0.38 0.37 0.34 0.34 0.32 0.29 0.27 0.24 0.25
0.60 0.63 0.59 0.59 0.59 0.62 0.62 0.53 0.56 0.53 0.43 0.42 0.44 0.47 0.61 0.68 0.65 0.65 0.47 0.49 0.51 0.51 0.53 0.44 0.39 0.33 0.37 0.29 0.29 0.35 0.40 0.43 0.38 0.36 0.34 0.33 0.34 0.36 0.34 0.30 0.27 0.26 0.25 0.23
0.58 0.59 0.63 0.61 0.60 0.63 0.61 0.54 0.57 0.53 0.45 0.33 0.37 0.57 0.54 0.66 0.66 0.59 0.55 0.54 0.56 0.55 0.53 0.45 0.39 0.34 0.42 0.36 0.39 0.38 0.39 0.39 0.34 0.30 0.30 0.30 0.29 0.29 0.29 0.29 0.26 0.22 0.22 0.21
0.54 0.56 0.58 0.62 0.61 0.63 0.61 0.59 0.58 0.60 0.46 0.33 0.35 0.47 0.54 0.60 0.62 0.59 0.60 0.58 0.55 0.50 0.44 0.40 0.36 0.40 0.38 0.37 0.34 0.32 0.36 0.33 0.29 0.26 0.27 0.22 0.23 0.26 0.27 0.23 0.19 0.19 0.19 0.19
0.45 0.53 0.56 0.57 0.59 0.60 0.56 0.43 0.55 0.59 0.53 0.39 0.30 0.44 0.45 0.52 0.54 0.52 0.50 0.48 0.44 0.40 0.38 0.37 0.38 0.39 0.35 0.29 0.26 0.30 0.30 0.30 0.26 0.21 0.24 0.20 0.22 0.20 0.19 0.17 0.18 0.20 0.21 0.22
0.38 0.43 0.48 0.53 0.54 0.51 0.44 0.40 0.49 0.55 0.53 0.39 0.31 0.31 0.41 0.43 0.42 0.42 0.40 0.41 0.39 0.35 0.35 0.34 0.31 0.29 0.29 0.23 0.18 0.21 0.22 0.22 0.22 0.22 0.19 0.16 0.16 0.17 0.21 0.22 0.24 0.29 0.32 0.33
0.30 0.33 0.40 0.45 0.48 0.51 0.45 0.50 0.51 0.49 0.41 0.40 0.28 0.28 0.32 0.40 0.34 0.31 0.37 0.33 0.33 0.32 0.30 0.30 0.26 0.24 0.22 0.16 0.17 0.16 0.17 0.17 0.17 0.17 0.17 0.19 0.22 0.26 0.28 0.30 0.31 0.29 0.30 0.31
0.26 0.27 0.29 0.32 0.32 0.30 0.34 0.42 0.41 0.41 0.35 0.31 0.30 0.25 0.24 0.35 0.30 0.30 0.28 0.27 0.21 0.26 0.22 0.21 0.21 0.16 0.14 0.15 0.15 0.14 0.16 0.17 0.17 0.20 0.21 0.24 0.26 0.27 0.28 0.30 0.31 0.29 0.28 0.29
0.23 0.23 0.20 0.20 0.28 0.37 0.35 0.31 0.27 0.26 0.29 0.33 0.29 0.32 0.26 0.30 0.25 0.23 0.21 0.23 0.18 0.16 0.19 0.19 0.16 0.14 0.17 0.20 0.22 0.23 0.24 0.24 0.25 0.23 0.23 0.26 0.26 0.27 0.29 0.29 0.30 0.28 0.27 0.27
0.22 0.18 0.18 0.26 0.30 0.26 0.22 0.19 0.20 0.20 0.18 0.25 0.27 0.23 0.19 0.27 0.18 0.18 0.23 0.19 0.19 0.14 0.14 0.15 0.13 0.13 0.18 0.24 0.24 0.26 0.26 0.27 0.28 0.30 0.31 0.31 0.31 0.29 0.29 0.29 0.27 0.27 0.27 0.27
0.25 0.25 0.28 0.26 0.22 0.18 0.15 0.16 0.19 0.17 0.16 0.23 0.21 0.21 0.21 0.21 0.25 0.20 0.22 0.17 0.19 0.13 0.18 0.16 0.13 0.18 0.24 0.26 0.27 0.28 0.29 0.30 0.29 0.31 0.30 0.31 0.32 0.31 0.29 0.27 0.26 0.27 0.28 0.28
0.30 0.23 0.18 0.18 0.18 0.13 0.11 0.10 0.14 0.15 0.17 0.18 0.17 0.15 0.19 0.21 0.23 0.20 0.19 0.15 0.15 0.22 0.17 0.14 0.17 0.24 0.28 0.31 0.33 0.32 0.33 0.32 0.33 0.32 0.33 0.32 0.31 0.30 0.27 0.25 0.27 0.27 0.28 0.29
0.20 0.16 0.12 0.14 0.14 0.15 0.16 0.16 0.16 0.20 0.19 0.20 0.21 0.21 0.21 0.24 0.20 0.20 0.15 0.19 0.19 0.14 0.12 0.13 0.20 0.26 0.29 0.33 0.34 0.34 0.33 0.34 0.33 0.33 0.32 0.31 0.29 0.27 0.27 0.27 0.28 0.27 0.26 0.28
0.18 0.17 0.12 0.15 0.21 0.22 0.23 0.24 0.22 0.25 0.26 0.25 0.22 0.23 0.23 0.20 0.18 0.20 0.17 0.15 0.13 0.13 0.12 0.18 0.23 0.28 0.31 0.32 0.34 0.34 0.35 0.34 0.32 0.31 0.29 0.28 0.28 0.27 0.27 0.28 0.27 0.27 0.27 0.27
0.19 0.19 0.18 0.21 0.21 0.21 0.24 0.25 0.23 0.29 0.29 0.29 0.26 0.20 0.18 0.16 0.17 0.15 0.13 0.12 0.11 0.15 0.20 0.24 0.27 0.29 0.31 0.33 0.34 0.33 0.31 0.31 0.29 0.29 0.28 0.28 0.27 0.26 0.26 0.27 0.27 0.28 0.28 0.28
0.16 0.17 0.24 0.25 0.25 0.23 0.24 0.27 0.26 0.31 0.26 0.20 0.20 0.15 0.15 0.20 0.15 0.14 0.17 0.15 0.19 0.22 0.26 0.30 0.31 0.31 0.31 0.32 0.32 0.31 0.30 0.29 0.28 0.28 0.28 0.27 0.28 0.28 0.27 0.26 0.28 0.29 0.29 0.30